Location: Palau
(42.3086°N, 3.1507°E)
Time: 17:34:56
(UTC+00:00)

X-37B - Pass Details

Date: 10 March 2021
Orbit: 380 x 394 km, 45.0° (Epoch: 07 April)

Event Time Altitude Azimuth Distance (km) Brightness Sun altitude
Rises 18:36:23 0° 198° (SSW) 2,257 4.6 -9.7°
Reaches altitude 10° 18:39:27 10° 165° (SSE) 1,412 3.2 -10.3°
Maximum altitude 18:40:44 12° 141° (SE) 1,305 2.8 -10.5°
Enters shadow 18:41:14 12° 131° (SE) 1,324 2.8 -10.6°
